Time,TemperatureF,DewpointF,PressureIn,WindDirection,WindDirectionDegrees,WindSpeedMPH,WindSpeedGustMPH,Humidity,HourlyPrecipIn,Conditions,Clouds,dailyrainin,SoftwareType,DateUTC
2013-06-08 00:00:00,51.7,51.7,29.96,ENE,58,7.0,7.0,100,0.14,,,0.31,Wunderground v.1.15,2013-06-08 04:00:00,
2013-06-08 00:10:00,51.6,51.6,29.94,ENE,72,5.0,10.0,100,0.11,,,0.03,Wunderground v.1.15,2013-06-08 04:10:00,
2013-06-08 00:20:00,51.7,51.7,29.93,NE,53,4.0,4.0,100,0.09,,,0.04,Wunderground v.1.15,2013-06-08 04:20:00,
2013-06-08 00:30:00,51.9,51.9,29.93,East,101,3.0,3.0,100,0.05,,,0.05,Wunderground v.1.15,2013-06-08 04:30:00,
2013-06-08 00:40:00,52.0,52.0,29.93,ESE,105,5.0,5.0,100,0.05,,,0.05,Wunderground v.1.15,2013-06-08 04:40:00,
2013-06-08 00:50:00,52.2,52.2,29.92,ENE,65,4.0,4.0,100,0.00,,,0.05,Wunderground v.1.15,2013-06-08 04:50:00,
2013-06-08 01:00:00,52.3,52.3,29.92,East,98,4.0,5.0,100,0.00,,,0.06,Wunderground v.1.15,2013-06-08 05:00:00,
2013-06-08 01:10:00,52.3,52.3,29.91,ENE,66,6.0,6.0,100,0.00,,,0.06,Wunderground v.1.15,2013-06-08 05:10:00,
2013-06-08 01:20:00,52.6,52.6,29.90,East,99,6.0,7.0,100,0.00,,,0.06,Wunderground v.1.15,2013-06-08 05:20:00,
2013-06-08 01:30:00,52.8,52.8,29.90,NE,45,6.0,9.0,100,0.00,,,0.06,Wunderground v.1.15,2013-06-08 05:30:00,
2013-06-08 01:40:00,52.9,52.9,29.89,East,81,7.0,7.0,100,0.00,,,0.06,Wunderground v.1.15,2013-06-08 05:40:00,
2013-06-08 01:50:00,53.1,53.1,29.87,East,92,8.0,8.0,100,0.00,,,0.07,Wunderground v.1.15,2013-06-08 05:50:00,
2013-06-08 02:00:00,53.1,53.1,29.87,NE,56,7.0,7.0,100,0.00,,,0.07,Wunderground v.1.15,2013-06-08 06:00:00,
2013-06-08 02:10:00,53.1,53.1,29.86,ENE,76,8.0,9.0,100,0.00,,,0.08,Wunderground v.1.15,2013-06-08 06:10:00,
2013-06-08 02:20:00,53.1,53.1,29.86,ENE,63,7.0,9.0,100,0.00,,,0.08,Wunderground v.1.15,2013-06-08 06:20:00,
2013-06-08 02:30:00,53.1,53.1,29.86,ENE,60,7.0,9.0,100,0.09,,,0.10,Wunderground v.1.15,2013-06-08 06:30:00,
2013-06-08 02:40:00,53.1,53.1,29.85,East,80,8.0,8.0,100,0.05,,,0.10,Wunderground v.1.15,2013-06-08 06:40:00,
2013-06-08 02:50:00,52.9,52.9,29.83,ENE,66,6.0,6.0,100,0.00,,,0.10,Wunderground v.1.15,2013-06-08 06:50:00,
2013-06-08 03:00:00,52.9,52.9,29.83,East,91,6.0,9.0,100,0.00,,,0.11,Wunderground v.1.15,2013-06-08 07:00:00,
2013-06-08 03:10:00,52.9,52.9,29.82,East,84,4.0,4.0,100,0.00,,,0.11,Wunderground v.1.15,2013-06-08 07:10:00,
2013-06-08 03:20:00,52.8,52.8,29.81,East,86,4.0,4.0,100,0.00,,,0.12,Wunderground v.1.15,2013-06-08 07:20:00,
2013-06-08 03:30:00,52.8,52.8,29.81,ENE,76,4.0,5.0,100,0.00,,,0.12,Wunderground v.1.15,2013-06-08 07:30:00,
2013-06-08 03:40:00,52.6,52.6,29.82,East,94,5.0,6.0,100,0.12,,,0.14,Wunderground v.1.15,2013-06-08 07:40:00,
2013-06-08 03:50:00,52.5,52.5,29.80,East,83,5.0,9.0,100,0.10,,,0.16,Wunderground v.1.15,2013-06-08 07:50:00,
2013-06-08 04:00:00,52.5,52.5,29.80,ENE,63,6.0,9.0,100,0.20,,,0.18,Wunderground v.1.15,2013-06-08 08:00:00,
2013-06-08 04:10:00,52.3,52.3,29.78,NE,56,7.0,12.0,100,0.11,,,0.21,Wunderground v.1.15,2013-06-08 08:10:00,
2013-06-08 04:20:00,52.2,52.2,29.78,ENE,66,9.0,9.0,100,0.22,,,0.25,Wunderground v.1.15,2013-06-08 08:20:00,
2013-06-08 04:30:00,52.0,52.0,29.78,NE,52,7.0,7.0,100,0.14,,,0.27,Wunderground v.1.15,2013-06-08 08:30:00,
2013-06-08 04:40:00,52.0,52.0,29.77,NE,53,7.0,7.0,100,0.07,,,0.29,Wunderground v.1.15,2013-06-08 08:40:00,
2013-06-08 04:50:00,51.9,51.9,29.77,East,81,5.0,6.0,100,0.05,,,0.29,Wunderground v.1.15,2013-06-08 08:50:00,
2013-06-08 05:00:00,51.7,51.7,29.77,ENE,68,7.0,7.0,100,0.04,,,0.30,Wunderground v.1.15,2013-06-08 09:00:00,
2013-06-08 05:10:00,51.7,51.7,29.76,NE,51,7.0,7.0,100,0.04,,,0.30,Wunderground v.1.15,2013-06-08 09:10:00,
2013-06-08 05:20:00,51.7,51.7,29.75,ENE,63,7.0,7.0,100,0.00,,,0.30,Wunderground v.1.15,2013-06-08 09:20:00,
2013-06-08 05:30:00,51.9,51.9,29.75,ENE,71,6.0,9.0,100,0.21,,,0.32,Wunderground v.1.15,2013-06-08 09:30:00,
2013-06-08 05:40:00,51.7,51.7,29.75,NE,53,6.0,6.0,100,0.24,,,0.39,Wunderground v.1.15,2013-06-08 09:40:00,
2013-06-08 05:50:00,51.7,51.7,29.75,NE,41,6.0,6.0,100,0.85,,,0.48,Wunderground v.1.15,2013-06-08 09:50:00,
2013-06-08 06:00:00,51.7,51.7,29.75,NE,34,6.0,6.0,100,0.98,,,0.56,Wunderground v.1.15,2013-06-08 10:00:00,
2013-06-08 06:10:00,51.7,51.7,29.73,NE,42,7.0,7.0,100,0.15,,,0.61,Wunderground v.1.15,2013-06-08 10:10:00,
2013-06-08 06:20:00,51.7,51.7,29.72,ENE,58,6.0,6.0,100,0.07,,,0.62,Wunderground v.1.15,2013-06-08 10:20:00,
2013-06-08 06:30:00,51.9,51.9,29.72,ENE,75,7.0,7.0,100,0.00,,,0.62,Wunderground v.1.15,2013-06-08 10:30:00,
2013-06-08 06:40:00,51.7,51.7,29.73,East,84,6.0,7.0,100,0.17,,,0.64,Wunderground v.1.15,2013-06-08 10:40:00,
2013-06-08 06:50:00,51.7,51.7,29.70,ENE,72,6.0,6.0,100,0.08,,,0.65,Wunderground v.1.15,2013-06-08 10:50:00,
2013-06-08 07:00:00,51.7,51.7,29.70,East,83,7.0,13.0,100,0.09,,,0.66,Wunderground v.1.15,2013-06-08 11:00:00,
2013-06-08 07:10:00,51.7,51.7,29.71,ENE,66,5.0,5.0,100,0.00,,,0.66,Wunderground v.1.15,2013-06-08 11:10:00,
2013-06-08 07:20:00,51.7,51.7,29.69,NE,46,6.0,6.0,100,0.00,,,0.66,Wunderground v.1.15,2013-06-08 11:20:00,
2013-06-08 07:30:00,52.0,52.0,29.69,ENE,62,4.0,4.0,100,0.00,,,0.66,Wunderground v.1.15,2013-06-08 11:30:00,
2013-06-08 07:40:00,51.9,51.9,29.70,NE,56,4.0,8.0,100,0.37,,,0.70,Wunderground v.1.15,2013-06-08 11:40:00,
2013-06-08 07:50:00,51.9,51.9,29.68,ENE,60,5.0,5.0,100,0.38,,,0.76,Wunderground v.1.15,2013-06-08 11:50:00,
2013-06-08 08:00:00,51.9,51.9,29.68,NE,46,4.0,4.0,100,0.17,,,0.79,Wunderground v.1.15,2013-06-08 12:00:00,
2013-06-08 08:10:00,52.0,52.0,29.67,ENE,57,5.0,5.0,100,0.08,,,0.81,Wunderground v.1.15,2013-06-08 12:10:00,
2013-06-08 08:20:00,52.2,52.2,29.67,ENE,63,5.0,5.0,100,0.09,,,0.82,Wunderground v.1.15,2013-06-08 12:20:00,
2013-06-08 08:30:00,52.2,52.2,29.67,NE,55,4.0,6.0,100,0.13,,,0.84,Wunderground v.1.15,2013-06-08 12:30:00,
2013-06-08 08:40:00,52.2,52.2,29.66,NE,41,4.0,6.0,100,0.10,,,0.87,Wunderground v.1.15,2013-06-08 12:40:00,
2013-06-08 08:50:00,52.3,52.3,29.66,NE,44,4.0,5.0,100,0.09,,,0.89,Wunderground v.1.15,2013-06-08 12:50:00,
2013-06-08 09:00:00,52.5,52.5,29.66,NE,51,5.0,5.0,100,0.05,,,0.89,Wunderground v.1.15,2013-06-08 13:00:00,
2013-06-08 09:10:00,52.9,52.9,29.65,NE,56,3.0,4.0,100,0.05,,,0.90,Wunderground v.1.15,2013-06-08 13:10:00,
2013-06-08 09:20:00,53.2,53.2,29.65,NE,41,3.0,3.0,100,0.00,,,0.90,Wunderground v.1.15,2013-06-08 13:20:00,
2013-06-08 09:30:00,53.6,53.6,29.65,NE,52,3.0,6.0,100,0.00,,,0.91,Wunderground v.1.15,2013-06-08 13:30:00,
2013-06-08 09:40:00,53.6,53.6,29.64,NE,52,4.0,4.0,100,0.06,,,0.92,Wunderground v.1.15,2013-06-08 13:40:00,
2013-06-08 09:50:00,54.1,54.1,29.64,North,358,3.0,4.0,100,0.00,,,0.93,Wunderground v.1.15,2013-06-08 13:50:00,
2013-06-08 10:00:00,54.4,54.4,29.64,NE,36,4.0,4.0,100,0.00,,,0.93,Wunderground v.1.15,2013-06-08 14:00:00,
2013-06-08 10:10:00,54.8,54.8,29.63,NE,39,3.0,5.0,100,0.00,,,0.93,Wunderground v.1.15,2013-06-08 14:10:00,
2013-06-08 10:20:00,55.3,55.3,29.62,NE,44,3.0,3.0,100,0.00,,,0.93,Wunderground v.1.15,2013-06-08 14:20:00,
2013-06-08 10:30:00,55.6,55.6,29.62,NE,37,3.0,5.0,100,0.00,,,0.93,Wunderground v.1.15,2013-06-08 14:30:00,
2013-06-08 10:40:00,55.4,55.4,29.61,NE,37,5.0,6.0,100,0.00,,,0.93,Wunderground v.1.15,2013-06-08 14:40:00,
2013-06-08 10:50:00,55.9,55.9,29.61,North,358,4.0,9.0,100,0.00,,,0.93,Wunderground v.1.15,2013-06-08 14:50:00,
2013-06-08 11:00:00,55.6,55.6,29.61,North,0,5.0,7.0,100,0.00,,,0.93,Wunderground v.1.15,2013-06-08 15:00:00,
2013-06-08 11:10:00,55.4,55.4,29.62,NNW,342,5.0,5.0,100,0.00,,,0.93,Wunderground v.1.15,2013-06-08 15:10:00,
2013-06-08 11:20:00,55.3,55.3,29.62,NNW,346,7.0,7.0,100,0.00,,,0.93,Wunderground v.1.15,2013-06-08 15:20:00,
2013-06-08 11:30:00,55.6,55.6,29.62,North,358,6.0,7.0,100,0.00,,,0.93,Wunderground v.1.15,2013-06-08 15:30:00,
2013-06-08 11:40:00,55.4,55.4,29.63,North,8,7.0,7.0,100,0.00,,,0.93,Wunderground v.1.15,2013-06-08 15:40:00,
2013-06-08 11:50:00,55.7,55.7,29.63,NNW,340,7.0,7.0,100,0.00,,,0.93,Wunderground v.1.15,2013-06-08 15:50:00,
2013-06-08 12:00:00,55.4,55.4,29.63,NNE,22,6.0,7.0,100,0.00,,,0.93,Wunderground v.1.15,2013-06-08 16:00:00,
2013-06-08 12:10:00,55.6,55.6,29.64,North,358,6.0,7.0,100,0.00,,,0.93,Wunderground v.1.15,2013-06-08 16:10:00,
2013-06-08 12:20:00,55.6,55.6,29.64,North,0,7.0,9.0,100,0.00,,,0.93,Wunderground v.1.15,2013-06-08 16:20:00,
2013-06-08 12:30:00,55.7,55.7,29.64,North,0,6.0,12.0,100,0.00,,,0.93,Wunderground v.1.15,2013-06-08 16:30:00,
2013-06-08 12:40:00,56.0,56.0,29.65,NW,326,8.0,8.0,100,0.00,,,0.93,Wunderground v.1.15,2013-06-08 16:40:00,
2013-06-08 12:50:00,56.5,56.5,29.65,NNW,348,7.0,7.0,100,0.00,,,0.93,Wunderground v.1.15,2013-06-08 16:50:00,
2013-06-08 13:00:00,57.5,57.5,29.65,NNW,343,6.0,11.0,100,0.00,,,0.93,Wunderground v.1.15,2013-06-08 17:00:00,
2013-06-08 13:10:00,57.6,56.8,29.65,NW,321,7.0,7.0,97,0.00,,,0.93,Wunderground v.1.15,2013-06-08 17:10:00,
2013-06-08 13:20:00,57.6,56.2,29.66,NW,315,7.0,7.0,95,0.00,,,0.93,Wunderground v.1.15,2013-06-08 17:20:00,
2013-06-08 13:30:00,57.8,55.8,29.66,NNW,340,7.0,7.0,93,0.00,,,0.93,Wunderground v.1.15,2013-06-08 17:30:00,
2013-06-08 13:40:00,58.4,55.8,29.67,NW,321,7.0,7.0,91,0.00,,,0.93,Wunderground v.1.15,2013-06-08 17:40:00,
2013-06-08 13:50:00,58.4,55.8,29.68,NNW,345,5.0,6.0,91,0.00,,,0.93,Wunderground v.1.15,2013-06-08 17:50:00,
2013-06-08 14:00:00,59.0,55.8,29.68,North,358,6.0,6.0,89,0.00,,,0.93,Wunderground v.1.15,2013-06-08 18:00:00,
2013-06-08 14:10:00,59.2,55.6,29.68,North,0,5.0,6.0,88,0.00,,,0.93,Wunderground v.1.15,2013-06-08 18:10:00,
2013-06-08 14:20:00,59.0,55.1,29.68,WNW,295,6.0,6.0,87,0.00,,,0.93,Wunderground v.1.15,2013-06-08 18:20:00,
2013-06-08 14:30:00,59.5,55.6,29.68,WNW,297,5.0,5.0,87,0.00,,,0.93,Wunderground v.1.15,2013-06-08 18:30:00,
2013-06-08 14:40:00,59.6,55.4,29.70,NNE,14,5.0,6.0,86,0.00,,,0.93,Wunderground v.1.15,2013-06-08 18:40:00,
2013-06-08 14:50:00,59.5,54.7,29.71,NW,309,5.0,5.0,84,0.00,,,0.93,Wunderground v.1.15,2013-06-08 18:50:00,
2013-06-08 15:00:00,59.9,55.4,29.71,NNW,348,6.0,9.0,85,0.00,,,0.93,Wunderground v.1.15,2013-06-08 19:00:00,
2013-06-08 15:10:00,60.2,55.3,29.72,North,0,6.0,6.0,84,0.00,,,0.93,Wunderground v.1.15,2013-06-08 19:10:00,
2013-06-08 15:20:00,59.8,55.3,29.73,WNW,297,8.0,8.0,85,0.00,,,0.93,Wunderground v.1.15,2013-06-08 19:20:00,
2013-06-08 15:30:00,59.6,55.7,29.73,North,349,6.0,6.0,87,0.00,,,0.93,Wunderground v.1.15,2013-06-08 19:30:00,
2013-06-08 15:40:00,60.4,55.9,29.73,NNW,347,6.0,6.0,85,0.00,,,0.93,Wunderground v.1.15,2013-06-08 19:40:00,
2013-06-08 15:50:00,61.8,55.6,29.74,West,271,7.0,8.0,80,0.00,,,0.93,Wunderground v.1.15,2013-06-08 19:50:00,
2013-06-08 16:00:00,61.3,55.4,29.74,North,357,7.0,7.0,81,0.00,,,0.93,Wunderground v.1.15,2013-06-08 20:00:00,
2013-06-08 16:10:00,61.3,55.1,29.76,West,279,8.0,10.0,80,0.00,,,0.93,Wunderground v.1.15,2013-06-08 20:10:00,
2013-06-08 16:20:00,61.3,54.7,29.77,WNW,285,6.0,6.0,79,0.00,,,0.93,Wunderground v.1.15,2013-06-08 20:20:00,
2013-06-08 16:30:00,61.3,55.1,29.77,NW,307,4.0,4.0,80,0.00,,,0.93,Wunderground v.1.15,2013-06-08 20:30:00,
2013-06-08 16:40:00,62.0,55.4,29.78,North,358,4.0,6.0,79,0.00,,,0.93,Wunderground v.1.15,2013-06-08 20:40:00,
2013-06-08 16:50:00,62.0,55.4,29.78,NW,311,4.0,4.0,79,0.00,,,0.93,Wunderground v.1.15,2013-06-08 20:50:00,
2013-06-08 17:00:00,62.0,55.8,29.78,NW,311,2.0,4.0,80,0.00,,,0.93,Wunderground v.1.15,2013-06-08 21:00:00,
2013-06-08 17:10:00,62.3,56.0,29.79,West,281,4.0,4.0,80,0.00,,,0.93,Wunderground v.1.15,2013-06-08 21:10:00,
2013-06-08 17:20:00,62.4,55.8,29.79,WNW,289,6.0,6.0,79,0.00,,,0.93,Wunderground v.1.15,2013-06-08 21:20:00,
2013-06-08 17:30:00,62.4,55.8,29.79,West,263,5.0,8.0,79,0.00,,,0.93,Wunderground v.1.15,2013-06-08 21:30:00,
2013-06-08 17:40:00,62.1,55.9,29.81,West,278,7.0,7.0,80,0.00,,,0.93,Wunderground v.1.15,2013-06-08 21:40:00,
2013-06-08 17:50:00,62.6,57.0,29.81,NW,305,4.0,4.0,82,0.00,,,0.93,Wunderground v.1.15,2013-06-08 21:50:00,
2013-06-08 18:00:00,64.0,57.0,29.81,NW,309,2.0,3.0,78,0.00,,,0.93,Wunderground v.1.15,2013-06-08 22:00:00,
2013-06-08 18:10:00,63.2,56.9,29.82,North,356,3.0,3.0,80,0.00,,,0.93,Wunderground v.1.15,2013-06-08 22:10:00,
2013-06-08 18:20:00,62.6,56.7,29.83,North,354,2.0,4.0,81,0.00,,,0.93,Wunderground v.1.15,2013-06-08 22:20:00,
2013-06-08 18:30:00,62.3,57.1,29.83,North,354,1.0,1.0,83,0.00,,,0.93,Wunderground v.1.15,2013-06-08 22:30:00,
2013-06-08 18:40:00,62.0,56.8,29.84,NW,324,2.0,4.0,83,0.00,,,0.93,Wunderground v.1.15,2013-06-08 22:40:00,
2013-06-08 18:50:00,61.8,57.2,29.84,NW,324,1.0,1.0,85,0.00,,,0.93,Wunderground v.1.15,2013-06-08 22:50:00,
2013-06-08 19:00:00,61.6,57.0,29.84,NW,324,1.0,1.0,85,0.00,,,0.93,Wunderground v.1.15,2013-06-08 23:00:00,
2013-06-08 19:10:00,61.8,57.2,29.85,NW,324,0.0,0.0,85,0.00,,,0.93,Wunderground v.1.15,2013-06-08 23:10:00,
2013-06-08 19:20:00,61.8,56.9,29.85,NW,317,1.0,2.0,84,0.00,,,0.93,Wunderground v.1.15,2013-06-08 23:20:00,
2013-06-08 19:30:00,61.6,57.0,29.85,NW,317,1.0,1.0,85,0.00,,,0.93,Wunderground v.1.15,2013-06-08 23:30:00,
2013-06-08 19:40:00,61.6,57.0,29.86,NW,317,2.0,2.0,85,0.00,,,0.93,Wunderground v.1.15,2013-06-08 23:40:00,
2013-06-08 19:50:00,61.3,56.8,29.87,NW,317,1.0,1.0,85,0.00,,,0.93,Wunderground v.1.15,2013-06-08 23:50:00,
2013-06-08 20:00:00,61.3,56.8,29.87,NW,317,1.0,1.0,85,0.00,,,0.93,Wunderground v.1.15,2013-06-09 00:00:00,
2013-06-08 20:10:00,61.3,56.8,29.87,West,278,3.0,3.0,85,0.00,,,0.93,Wunderground v.1.15,2013-06-09 00:10:00,
2013-06-08 20:20:00,61.2,56.7,29.89,West,278,2.0,2.0,85,0.00,,,0.93,Wunderground v.1.15,2013-06-09 00:20:00,
2013-06-08 20:30:00,61.0,56.5,29.89,West,278,1.0,1.0,85,0.00,,,0.93,Wunderground v.1.15,2013-06-09 00:30:00,
2013-06-08 20:40:00,60.9,56.4,29.88,West,281,1.0,3.0,85,0.00,,,0.93,Wunderground v.1.15,2013-06-09 00:40:00,
2013-06-08 20:50:00,60.7,56.2,29.90,West,281,1.0,1.0,85,0.00,,,0.93,Wunderground v.1.15,2013-06-09 00:50:00,
2013-06-08 21:00:00,60.5,56.3,29.90,West,281,1.0,1.0,86,0.00,,,0.93,Wunderground v.1.15,2013-06-09 01:00:00,
2013-06-08 21:10:00,60.5,56.0,29.90,WNW,284,2.0,4.0,85,0.00,,,0.93,Wunderground v.1.15,2013-06-09 01:10:00,
2013-06-08 21:20:00,60.4,55.9,29.90,WNW,284,2.0,2.0,85,0.00,,,0.93,Wunderground v.1.15,2013-06-09 01:20:00,
2013-06-08 21:30:00,60.4,55.9,29.90,WNW,284,2.0,3.0,85,0.00,,,0.93,Wunderground v.1.15,2013-06-09 01:30:00,
2013-06-08 21:40:00,60.2,56.0,29.90,WNW,284,0.0,0.0,86,0.00,,,0.93,Wunderground v.1.15,2013-06-09 01:40:00,
2013-06-08 21:50:00,59.9,55.7,29.92,WNW,284,0.0,0.0,86,0.00,,,0.93,Wunderground v.1.15,2013-06-09 01:50:00,
2013-06-08 22:00:00,59.8,55.9,29.92,WNW,284,0.0,0.0,87,0.00,,,0.93,Wunderground v.1.15,2013-06-09 02:00:00,
2013-06-08 22:10:00,59.6,56.0,29.91,WNW,284,0.0,1.0,88,0.00,,,0.93,Wunderground v.1.15,2013-06-09 02:10:00,
2013-06-08 22:20:00,59.3,55.7,29.92,WNW,284,1.0,1.0,88,0.00,,,0.93,Wunderground v.1.15,2013-06-09 02:20:00,
2013-06-08 22:30:00,59.3,55.7,29.92,WNW,284,1.0,1.0,88,0.00,,,0.93,Wunderground v.1.15,2013-06-09 02:30:00,
2013-06-08 22:40:00,59.3,55.4,29.92,West,278,2.0,4.0,87,0.00,,,0.93,Wunderground v.1.15,2013-06-09 02:40:00,
2013-06-08 22:50:00,59.3,54.5,29.92,NNW,336,1.0,2.0,84,0.00,,,0.93,Wunderground v.1.15,2013-06-09 02:50:00,
2013-06-08 23:00:00,59.3,54.1,29.92,NNW,336,1.0,1.0,83,0.00,,,0.93,Wunderground v.1.15,2013-06-09 03:00:00,
2013-06-08 23:10:00,59.2,54.4,29.91,NNW,336,0.0,0.0,84,0.00,,,0.93,Wunderground v.1.15,2013-06-09 03:10:00,
2013-06-08 23:20:00,58.6,54.7,29.92,NNW,336,0.0,0.0,87,0.00,,,0.93,Wunderground v.1.15,2013-06-09 03:20:00,
2013-06-08 23:30:00,58.3,55.1,29.92,NNW,341,2.0,3.0,89,0.00,,,0.93,Wunderground v.1.15,2013-06-09 03:30:00,
2013-06-08 23:40:00,58.1,55.5,29.92,NNW,342,1.0,1.0,91,0.00,,,0.93,Wunderground v.1.15,2013-06-09 03:40:00,
2013-06-08 23:50:00,58.0,55.7,29.93,NNW,342,0.0,0.0,92,0.00,,,0.93,Wunderground v.1.15,2013-06-09 03:50:00,